This is the latest recevied weather packets stored in our database for station/object JR4VEV-13. If no packets are shown the sender has not sent any weather packets the latest 10 day(s).
| Time | Temp. | Humidity | Pressure | Rain* | Wind** | Luminosity | Snow |
|---|---|---|---|---|---|---|---|
| 1777551778 | 13.89° C | 97% | 1010.4 hPa | 3.3 mm | - | - | - |
| 1777551177 | 13.89° C | 97% | 1011.6 hPa | 2.54 mm | - | - | - |
| 1777550578 | 13.89° C | 97% | 1011.7 hPa | 1.78 mm | - | - | - |
| 1777549978 | 13.89° C | 96% | 1012 hPa | 1.02 mm | - | - | - |
| 1777549378 | 13.89° C | 96% | 1012.1 hPa | 0.51 mm | - | - | - |
| 1777548779 | 13.89° C | 96% | 1012 hPa | 0 mm | - | - | - |
| 1777548179 | 13.89° C | 96% | 1011.8 hPa | 0 mm | - | - | - |
| 1777547578 | 13.89° C | 96% | 1011.8 hPa | 0.25 mm | - | - | - |
| 1777546978 | 13.89° C | 96% | 1011.6 hPa | 0.25 mm | - | - | - |
| 1777546377 | 13.89° C | 96% | 1011.7 hPa | 0.51 mm | - | - | - |
| 1777545779 | 13.89° C | 96% | 1011.3 hPa | 0.51 mm | - | - | - |
| 1777545178 | 13.89° C | 96% | 1011.6 hPa | 0.51 mm | - | - | - |
| 1777544578 | 13.89° C | 96% | 1011.5 hPa | 0.51 mm | - | - | - |
| 1777543979 | 13.89° C | 96% | 1011.6 hPa | 0.51 mm | - | - | - |
| 1777543378 | 13.89° C | 96% | 1011.8 hPa | 0.51 mm | - | - | - |
| 1777542778 | 13.33° C | 96% | 1012 hPa | 0.25 mm | - | - | - |
| 1777542178 | 13.33° C | 96% | 1012.3 hPa | 0.25 mm | - | - | - |
| 1777541578 | 13.33° C | 96% | 1012.6 hPa | 0.25 mm | - | - | - |
| 1777540979 | 13.33° C | 96% | 1012.7 hPa | 0.51 mm | - | - | - |
| 1777540379 | 13.33° C | 96% | 1012.8 hPa | 0.25 mm | - | - | - |
| 1777539779 | 13.33° C | 96% | 1012.8 hPa | 0.25 mm | - | - | - |
| 1777539178 | 13.33° C | 96% | 1012.8 hPa | 0.25 mm | - | - | - |
| 1777538579 | 13.33° C | 95% | 1012.8 hPa | 0.25 mm | - | - | - |
| 1777537979 | 13.33° C | 95% | 1013 hPa | 0.25 mm | - | - | - |
| 1777537379 | 13.33° C | 95% | 1012.9 hPa | 0 mm | - | - | - |
* Rain latest hour (hover to see other rain measurements)
** Current wind speed in m/s (hover to see current wind gust speed)